sat.trackr.live / text

‹ back to catalog

STARLINK-34675

NORAD 64809 · 2025-150V

PAYLOAD ACTIVE UNKNOWN

§ Identity

Operator
Country
US
Launch date
2025-07-16
Launch site
AFWTR
Launch vehicle
Mass (kg)
RCS (m²)

Purposes: comms

External: N2YO · Heavens-Above · Gunter

§ Orbital elements

Epoch: 2026-05-24T20:08:38.344416Z

Period
96.11 min
Inclination
70.0004°
Eccentricity
0.0002950
Mean motion
14.98335854 rev/d
Perigee alt
570.0 km
Apogee alt
574.1 km
Semi-major
6,950.2 km
B*
2.5699e-4
RAAN
302.4416°
Arg perigee
266.1219°
Mean anomaly
93.9602°
Rev number
4,792

§ Raw data

STARLINK-346751 64809U 25150V   26144.83933269  .00002975  00000+0  25699-3 0  99962 64809  70.0004 302.4416 0002950 266.1219  93.9602 14.98335854 47924

JSON: /api/v1/satellites/64809 · /tle

For live sub-satellite position, see the globe view (requires WebGL).

§ Visibility from observer

Set your observer location to see the next 7 days of passes ≥ 10°. The values pass through the URL so the page stays shareable.

No JS? Fill the form by hand. The geolocation button needs JavaScript.